Location: Newark
(30.0333°N, 31.2167°E)
Time: 00:38:44
(UTC+00:00)

Tiros 1 - Pass Details

Date: 01 February 2020
Orbit: 631 x 664 km, 48.4° (Epoch: 20 February)

Event Time Altitude Azimuth Distance (km) Brightness Sun altitude
Rises 05:30:38 0° 188° (S) 2,898 10.7 8.1°
Reaches altitude 10° 05:33:38 10° 168° (SSE) 1,996 10.3 8.7°
Maximum altitude 05:36:35 17° 128° (SE) 1,598 11.3 9.3°
Drops below altitude 10° 05:39:31 10° 88° (E) 2,008 11.0 9.8°
Sets 05:42:33 0° 68° (ENE) 2,924 11.2 10.4°
